owner,sensor,date,latitude,longitude,vertical_datum,wind_speed,wind_to_direction,wind_speed_of_gust,qcFlag 
ADCP,ioos:station:wmo:42887:1,2011-02-01T00:00:00Z,28.1910,-88.4960,48.2,0.7,33.0,99.0,'11111222,11111222,11144222' 
ADCP,ioos:station:wmo:42887:1,2011-02-01T00:20:00Z,28.1910,-88.4960,48.2,3.2,80.0,99.0,'11111222,11111222,11144222' 
ADCP,ioos:station:wmo:42887:1,2011-02-01T00:40:00Z,28.1910,-88.4960,48.2,3.5,90.0,99.0,'11111222,11111222,11144222' 
ADCP,ioos:station:wmo:42887:1,2011-02-01T01:00:00Z,28.1910,-88.4960,48.2,3.8,85.0,99.0,'11111222,11111222,11144222' 
ADCP,ioos:station:wmo:42887:1,2011-02-01T01:20:00Z,28.1910,-88.4960,48.2,4.0,104.0,99.0,'11111222,11111222,11144222' 
ADCP,ioos:station:wmo:42887:1,2011-02-01T01:40:00Z,28.1910,-88.4960,48.2,2.5,104.0,99.0,'11111222,11111222,11144222' 
ADCP,ioos:station:wmo:42887:1,2011-02-01T02:00:00Z,28.1910,-88.4960,48.2,3.4,107.0,99.0,'11111222,11111222,11144222' 
ADCP,ioos:station:wmo:42887:1,2011-02-01T02:20:00Z,28.1910,-88.4960,48.2,2.9,102.0,99.0,'11111222,11111222,11144222' 
ADCP,ioos:station:wmo:42887:1,2011-02-01T02:40:00Z,28.1910,-88.4960,48.2,3.9,115.0,99.0,'11111222,11111222,11144222' 
ADCP,ioos:station:wmo:42887:1,2011-02-01T03:00:00Z,28.1910,-88.4960,48.2,4.3,112.0,99.0,'11111222,11111222,11144222' 
ADCP,ioos:station:wmo:42887:1,2011-02-01T03:20:00Z,28.1910,-88.4960,48.2,5.3,124.0,99.0,'11111222,11111222,11144222' 
ADCP,ioos:station:wmo:42887:1,2011-02-01T03:40:00Z,28.1910,-88.4960,48.2,5.3,128.0,99.0,'11111222,11111222,11144222' 
ADCP,ioos:station:wmo:42887:1,2011-02-01T04:00:00Z,28.1910,-88.4960,48.2,5.4,128.0,99.0,'11111222,11111222,11144222' 
ADCP,ioos:station:wmo:42887:1,2011-02-01T04:20:00Z,28.1910,-88.4960,48.2,6.4,119.0,99.0,'11111222,11111222,11144222' 
ADCP,ioos:station:wmo:42887:1,2011-02-01T04:40:00Z,28.1910,-88.4960,48.2,6.1,121.0,99.0,'11111222,11111222,11144222' 
ADCP,ioos:station:wmo:42887:1,2011-02-01T05:00:00Z,28.1910,-88.4960,48.2,5.3,123.0,99.0,'11111222,11111222,11144222' 
ADCP,ioos:station:wmo:42887:1,2011-02-01T05:20:00Z,28.1910,-88.4960,48.2,3.9,126.0,99.0,'11111222,11111222,11144222' 
ADCP,ioos:station:wmo:42887:1,2011-02-01T05:40:00Z,28.1910,-88.4960,48.2,6.8,133.0,99.0,'11111222,11111222,11144222' 
ADCP,ioos:station:wmo:42887:1,2011-02-01T06:00:00Z,28.1910,-88.4960,48.2,6.3,126.0,99.0,'11111222,11111222,11144222' 
ADCP,ioos:station:wmo:42887:1,2011-02-01T06:20:00Z,28.1910,-88.4960,48.2,7.6,135.0,99.0,'11111222,11111222,11144222' 
ADCP,ioos:station:wmo:42887:1,2011-02-01T06:40:00Z,28.1910,-88.4960,48.2,6.8,128.0,99.0,'11111222,11111222,11144222' 
ADCP,ioos:station:wmo:42887:1,2011-02-01T07:00:00Z,28.1910,-88.4960,48.2,6.9,126.0,99.0,'11111222,11111222,11144222' 
ADCP,ioos:station:wmo:42887:1,2011-02-01T07:20:00Z,28.1910,-88.4960,48.2,6.8,126.0,99.0,'11111222,11111222,11144222' 
ADCP,ioos:station:wmo:42887:1,2011-02-01T07:40:00Z,28.1910,-88.4960,48.2,6.7,123.0,99.0,'11111222,11111222,11144222' 
ADCP,ioos:station:wmo:42887:1,2011-02-01T08:00:00Z,28.1910,-88.4960,48.2,7.2,124.0,99.0,'11111222,11111222,11144222' 
ADCP,ioos:station:wmo:42887:1,2011-02-01T08:20:00Z,28.1910,-88.4960,48.2,7.3,135.0,99.0,'11111222,11111222,11144222' 
ADCP,ioos:station:wmo:42887:1,2011-02-01T08:40:00Z,28.1910,-88.4960,48.2,6.3,157.0,99.0,'11111222,11111222,11144222' 
ADCP,ioos:station:wmo:42887:1,2011-02-01T09:00:00Z,28.1910,-88.4960,48.2,6.3,180.0,99.0,'11111222,11111222,11144222' 
ADCP,ioos:station:wmo:42887:1,2011-02-01T09:20:00Z,28.1910,-88.4960,48.2,6.1,167.0,99.0,'11111222,11111222,11144222' 
ADCP,ioos:station:wmo:42887:1,2011-02-01T09:40:00Z,28.1910,-88.4960,48.2,9.5,174.0,99.0,'11111222,11111222,11144222' 
ADCP,ioos:station:wmo:42887:1,2011-02-01T10:00:00Z,28.1910,-88.4960,48.2,10.1,140.0,99.0,'11111222,11111222,11144222' 
ADCP,ioos:station:wmo:42887:1,2011-02-01T11:00:00Z,28.1910,-88.4960,48.2,11.3,141.0,99.0,'11111222,11111222,11144222' 
ADCP,ioos:station:wmo:42887:1,2011-02-01T11:20:00Z,28.1910,-88.4960,48.2,12.8,140.0,99.0,'11111222,11111222,11144222' 
ADCP,ioos:station:wmo:42887:1,2011-02-01T11:40:00Z,28.1910,-88.4960,48.2,12.2,138.0,99.0,'11111222,11111222,11144222' 
ADCP,ioos:station:wmo:42887:1,2011-02-01T12:00:00Z,28.1910,-88.4960,48.2,11.9,146.0,99.0,'11111222,11111222,11144222' 
ADCP,ioos:station:wmo:42887:1,2011-02-01T12:20:00Z,28.1910,-88.4960,48.2,10.9,143.0,99.0,'11111222,11111222,11144222' 
ADCP,ioos:station:wmo:42887:1,2011-02-01T12:40:00Z,28.1910,-88.4960,48.2,11.5,145.0,99.0,'11111222,11111222,11144222' 
ADCP,ioos:station:wmo:42887:1,2011-02-01T13:00:00Z,28.1910,-88.4960,48.2,13.1,147.0,99.0,'11111222,11111222,11144222' 
ADCP,ioos:station:wmo:42887:1,2011-02-01T13:20:00Z,28.1910,-88.4960,48.2,12.0,143.0,99.0,'11111222,11111222,11144222' 
ADCP,ioos:station:wmo:42887:1,2011-02-01T13:40:00Z,28.1910,-88.4960,48.2,12.2,142.0,99.0,'11111222,11111222,11144222' 
ADCP,ioos:station:wmo:42887:1,2011-02-01T14:00:00Z,28.1910,-88.4960,48.2,9.4,137.0,99.0,'11111222,11111222,11144222' 
ADCP,ioos:station:wmo:42887:1,2011-02-01T14:20:00Z,28.1910,-88.4960,48.2,10.7,142.0,99.0,'11111222,11111222,11144222' 
ADCP,ioos:station:wmo:42887:1,2011-02-01T14:40:00Z,28.1910,-88.4960,48.2,11.0,141.0,99.0,'11111222,11111222,11144222' 
ADCP,ioos:station:wmo:42887:1,2011-02-01T15:00:00Z,28.1910,-88.4960,48.2,10.1,135.0,99.0,'11111222,11111222,11144222' 
ADCP,ioos:station:wmo:42887:1,2011-02-01T15:20:00Z,28.1910,-88.4960,48.2,11.6,146.0,99.0,'11111222,11111222,11144222' 
ADCP,ioos:station:wmo:42887:1,2011-02-01T15:40:00Z,28.1910,-88.4960,48.2,11.7,145.0,99.0,'11111222,11111222,11144222' 
ADCP,ioos:station:wmo:42887:1,2011-02-01T16:00:00Z,28.1910,-88.4960,48.2,9.1,140.0,99.0,'11111222,11111222,11144222' 
ADCP,ioos:station:wmo:42887:1,2011-02-01T16:20:00Z,28.1910,-88.4960,48.2,13.2,146.0,99.0,'11111222,11111222,11144222' 
ADCP,ioos:station:wmo:42887:1,2011-02-01T16:40:00Z,28.1910,-88.4960,48.2,12.3,146.0,99.0,'11111222,11111222,11144222' 
ADCP,ioos:station:wmo:42887:1,2011-02-01T17:00:00Z,28.1910,-88.4960,48.2,11.8,148.0,99.0,'11111222,11111222,11144222' 
ADCP,ioos:station:wmo:42887:1,2011-02-01T17:20:00Z,28.1910,-88.4960,48.2,12.5,151.0,99.0,'11111222,11111222,11144222' 
ADCP,ioos:station:wmo:42887:1,2011-02-01T17:40:00Z,28.1910,-88.4960,48.2,11.2,158.0,99.0,'11111222,11111222,11144222' 
ADCP,ioos:station:wmo:42887:1,2011-02-01T18:00:00Z,28.1910,-88.4960,48.2,10.3,162.0,99.0,'11111222,11111222,11144222' 
ADCP,ioos:station:wmo:42887:1,2011-02-01T18:20:00Z,28.1910,-88.4960,48.2,9.9,173.0,99.0,'11111222,11111222,11144222' 
ADCP,ioos:station:wmo:42887:1,2011-02-01T18:40:00Z,28.1910,-88.4960,48.2,9.5,166.0,99.0,'11111222,11111222,11144222' 
ADCP,ioos:station:wmo:42887:1,2011-02-01T19:00:00Z,28.1910,-88.4960,48.2,10.0,174.0,99.0,'11111222,11111222,11144222' 
ADCP,ioos:station:wmo:42887:1,2011-02-01T19:20:00Z,28.1910,-88.4960,48.2,10.7,184.0,99.0,'11111222,11111222,11144222' 
ADCP,ioos:station:wmo:42887:1,2011-02-01T19:40:00Z,28.1910,-88.4960,48.2,10.4,191.0,99.0,'11111222,11111222,11144222' 
ADCP,ioos:station:wmo:42887:1,2011-02-01T20:00:00Z,28.1910,-88.4960,48.2,11.6,189.0,99.0,'11111222,11111222,11144222' 
ADCP,ioos:station:wmo:42887:1,2011-02-01T20:20:00Z,28.1910,-88.4960,48.2,12.2,199.0,99.0,'11111222,11111222,11144222' 
ADCP,ioos:station:wmo:42887:1,2011-02-01T20:40:00Z,28.1910,-88.4960,48.2,12.4,197.0,99.0,'11111222,11111222,11144222' 
ADCP,ioos:station:wmo:42887:1,2011-02-01T21:00:00Z,28.1910,-88.4960,48.2,13.8,188.0,99.0,'11111222,11111222,11144222' 
ADCP,ioos:station:wmo:42887:1,2011-02-01T21:20:00Z,28.1910,-88.4960,48.2,14.2,180.0,99.0,'11111222,11111222,11144222' 
ADCP,ioos:station:wmo:42887:1,2011-02-01T21:40:00Z,28.1910,-88.4960,48.2,14.7,183.0,99.0,'11111222,11111222,11144222' 
ADCP,ioos:station:wmo:42887:1,2011-02-01T22:00:00Z,28.1910,-88.4960,48.2,14.5,185.0,99.0,'11111222,11111222,11144222' 
ADCP,ioos:station:wmo:42887:1,2011-02-01T22:20:00Z,28.1910,-88.4960,48.2,13.5,190.0,99.0,'11111222,11111222,11144222' 
ADCP,ioos:station:wmo:42887:1,2011-02-01T22:40:00Z,28.1910,-88.4960,48.2,13.4,186.0,99.0,'11111222,11111222,11144222' 
ADCP,ioos:station:wmo:42887:1,2011-02-01T23:20:00Z,28.1910,-88.4960,48.2,14.2,192.0,99.0,'11111222,11111222,11144222' 
ADCP,ioos:station:wmo:42887:1,2011-02-01T23:40:00Z,28.1910,-88.4960,48.2,13.0,187.0,99.0,'11111222,11111222,11144222' 
ADCP,ioos:station:wmo:42887:1,2011-02-02T00:00:00Z,28.1910,-88.4960,48.2,13.8,188.0,99.0,'11111222,11111222,11144222' 
ADCP,ioos:station:wmo:42887:1,2011-02-02T00:20:00Z,28.1910,-88.4960,48.2,13.7,190.0,99.0,'11111222,11111222,11144222' 
ADCP,ioos:station:wmo:42887:1,2011-02-02T00:40:00Z,28.1910,-88.4960,48.2,10.4,278.0,99.0,'11111222,11111222,11144222' 
ADCP,ioos:station:wmo:42887:1,2011-02-02T01:00:00Z,28.1910,-88.4960,48.2,10.3,308.0,99.0,'11111222,11111222,11144222' 
ADCP,ioos:station:wmo:42887:1,2011-02-02T01:20:00Z,28.1910,-88.4960,48.2,11.2,305.0,99.0,'11111222,11111222,11144222' 
ADCP,ioos:station:wmo:42887:1,2011-02-02T01:40:00Z,28.1910,-88.4960,48.2,9.1,306.0,99.0,'11111222,11111222,11144222' 
ADCP,ioos:station:wmo:42887:1,2011-02-02T02:00:00Z,28.1910,-88.4960,48.2,3.3,313.0,99.0,'11111222,11111222,11144222' 
ADCP,ioos:station:wmo:42887:1,2011-02-02T02:20:00Z,28.1910,-88.4960,48.2,5.6,315.0,99.0,'11111222,11111222,11144222' 
ADCP,ioos:station:wmo:42887:1,2011-02-02T02:40:00Z,28.1910,-88.4960,48.2,2.3,313.0,99.0,'11111222,11111222,11144222' 
ADCP,ioos:station:wmo:42887:1,2011-02-02T03:00:00Z,28.1910,-88.4960,48.2,5.6,290.0,99.0,'11111222,11111222,11144222' 
ADCP,ioos:station:wmo:42887:1,2011-02-02T03:20:00Z,28.1910,-88.4960,48.2,7.3,290.0,99.0,'11111222,11111222,11144222' 
ADCP,ioos:station:wmo:42887:1,2011-02-02T03:40:00Z,28.1910,-88.4960,48.2,8.4,293.0,99.0,'11111222,11111222,11144222' 
ADCP,ioos:station:wmo:42887:1,2011-02-02T04:00:00Z,28.1910,-88.4960,48.2,7.7,312.0,99.0,'11111222,11111222,11144222' 
ADCP,ioos:station:wmo:42887:1,2011-02-02T04:20:00Z,28.1910,-88.4960,48.2,9.5,308.0,99.0,'11111222,11111222,11144222' 
ADCP,ioos:station:wmo:42887:1,2011-02-02T04:40:00Z,28.1910,-88.4960,48.2,8.6,315.0,99.0,'11111222,11111222,11144222' 
ADCP,ioos:station:wmo:42887:1,2011-02-02T05:00:00Z,28.1910,-88.4960,48.2,8.7,316.0,99.0,'11111222,11111222,11144222' 
ADCP,ioos:station:wmo:42887:1,2011-02-02T05:20:00Z,28.1910,-88.4960,48.2,9.6,316.0,99.0,'11111222,11111222,11144222' 
ADCP,ioos:station:wmo:42887:1,2011-02-02T05:40:00Z,28.1910,-88.4960,48.2,9.8,316.0,99.0,'11111222,11111222,11144222' 
ADCP,ioos:station:wmo:42887:1,2011-02-02T06:00:00Z,28.1910,-88.4960,48.2,10.4,348.0,99.0,'11111222,11111222,11144222' 
ADCP,ioos:station:wmo:42887:1,2011-02-02T06:20:00Z,28.1910,-88.4960,48.2,11.4,349.0,99.0,'11111222,11111222,11144222' 
ADCP,ioos:station:wmo:42887:1,2011-02-02T06:40:00Z,28.1910,-88.4960,48.2,11.7,348.0,99.0,'11111222,11111222,11144222' 
ADCP,ioos:station:wmo:42887:1,2011-02-02T07:00:00Z,28.1910,-88.4960,48.2,9.2,342.0,99.0,'11111222,11111222,11144222' 
ADCP,ioos:station:wmo:42887:1,2011-02-02T07:20:00Z,28.1910,-88.4960,48.2,11.8,344.0,99.0,'11111222,11111222,11144222' 
ADCP,ioos:station:wmo:42887:1,2011-02-02T07:40:00Z,28.1910,-88.4960,48.2,12.6,347.0,99.0,'11111222,11111222,11144222' 
ADCP,ioos:station:wmo:42887:1,2011-02-02T08:00:00Z,28.1910,-88.4960,48.2,10.7,349.0,99.0,'11111222,11111222,11144222' 
ADCP,ioos:station:wmo:42887:1,2011-02-02T08:20:00Z,28.1910,-88.4960,48.2,11.3,358.0,99.0,'11111222,11111222,11144222' 
ADCP,ioos:station:wmo:42887:1,2011-02-02T08:40:00Z,28.1910,-88.4960,48.2,12.5,356.0,99.0,'11111222,11111222,11144222' 
ADCP,ioos:station:wmo:42887:1,2011-02-02T09:00:00Z,28.1910,-88.4960,48.2,13.9,1.0,99.0,'11111222,11111222,11144222' 
ADCP,ioos:station:wmo:42887:1,2011-02-02T09:20:00Z,28.1910,-88.4960,48.2,10.9,359.0,99.0,'11111222,11111222,11144222' 
ADCP,ioos:station:wmo:42887:1,2011-02-02T09:40:00Z,28.1910,-88.4960,48.2,11.0,1.0,99.0,'11111222,11111222,11144222' 
ADCP,ioos:station:wmo:42887:1,2011-02-02T10:00:00Z,28.1910,-88.4960,48.2,10.8,11.0,99.0,'11111222,11111222,11144222' 
ADCP,ioos:station:wmo:42887:1,2011-02-02T10:20:00Z,28.1910,-88.4960,48.2,10.2,17.0,99.0,'11111222,11111222,11144222' 
ADCP,ioos:station:wmo:42887:1,2011-02-02T10:40:00Z,28.1910,-88.4960,48.2,8.8,13.0,99.0,'11111222,11111222,11144222' 
ADCP,ioos:station:wmo:42887:1,2011-02-02T11:00:00Z,28.1910,-88.4960,48.2,9.7,17.0,99.0,'11111222,11111222,11144222' 
ADCP,ioos:station:wmo:42887:1,2011-02-02T11:20:00Z,28.1910,-88.4960,48.2,10.1,18.0,99.0,'11111222,11111222,11144222' 
ADCP,ioos:station:wmo:42887:1,2011-02-02T11:40:00Z,28.1910,-88.4960,48.2,10.2,15.0,99.0,'11111222,11111222,11144222' 
ADCP,ioos:station:wmo:42887:1,2011-02-02T12:00:00Z,28.1910,-88.4960,48.2,10.7,13.0,99.0,'11111222,11111222,11144222' 
ADCP,ioos:station:wmo:42887:1,2011-02-02T12:20:00Z,28.1910,-88.4960,48.2,11.0,15.0,99.0,'11111222,11111222,11144222' 
ADCP,ioos:station:wmo:42887:1,2011-02-02T12:40:00Z,28.1910,-88.4960,48.2,10.2,9.0,99.0,'11111222,11111222,11144222' 
ADCP,ioos:station:wmo:42887:1,2011-02-02T13:00:00Z,28.1910,-88.4960,48.2,10.3,15.0,99.0,'11111222,11111222,11144222' 
ADCP,ioos:station:wmo:42887:1,2011-02-02T13:20:00Z,28.1910,-88.4960,48.2,11.6,14.0,99.0,'11111222,11111222,11144222' 
ADCP,ioos:station:wmo:42887:1,2011-02-02T13:40:00Z,28.1910,-88.4960,48.2,12.2,18.0,99.0,'11111222,11111222,11144222' 
ADCP,ioos:station:wmo:42887:1,2011-02-02T14:00:00Z,28.1910,-88.4960,48.2,11.8,16.0,99.0,'11111222,11111222,11144222' 
ADCP,ioos:station:wmo:42887:1,2011-02-02T14:20:00Z,28.1910,-88.4960,48.2,11.1,17.0,99.0,'11111222,11111222,11144222' 
ADCP,ioos:station:wmo:42887:1,2011-02-02T14:40:00Z,28.1910,-88.4960,48.2,10.0,23.0,99.0,'11111222,11111222,11144222' 
ADCP,ioos:station:wmo:42887:1,2011-02-02T15:00:00Z,28.1910,-88.4960,48.2,9.9,16.0,99.0,'11111222,11111222,11144222' 
ADCP,ioos:station:wmo:42887:1,2011-02-02T15:20:00Z,28.1910,-88.4960,48.2,10.2,6.0,99.0,'11111222,11111222,11144222' 
ADCP,ioos:station:wmo:42887:1,2011-02-02T15:40:00Z,28.1910,-88.4960,48.2,9.0,18.0,99.0,'11111222,11111222,11144222' 
ADCP,ioos:station:wmo:42887:1,2011-02-02T16:00:00Z,28.1910,-88.4960,48.2,9.5,2.0,99.0,'11111222,11111222,11144222' 
ADCP,ioos:station:wmo:42887:1,2011-02-02T16:20:00Z,28.1910,-88.4960,48.2,9.6,26.0,99.0,'11111222,11111222,11144222' 
ADCP,ioos:station:wmo:42887:1,2011-02-02T16:40:00Z,28.1910,-88.4960,48.2,9.1,16.0,99.0,'11111222,11111222,11144222' 
ADCP,ioos:station:wmo:42887:1,2011-02-02T17:00:00Z,28.1910,-88.4960,48.2,9.1,20.0,99.0,'11111222,11111222,11144222' 
ADCP,ioos:station:wmo:42887:1,2011-02-02T17:20:00Z,28.1910,-88.4960,48.2,8.7,16.0,99.0,'11111222,11111222,11144222' 
ADCP,ioos:station:wmo:42887:1,2011-02-02T17:40:00Z,28.1910,-88.4960,48.2,8.5,22.0,99.0,'11111222,11111222,11144222' 
ADCP,ioos:station:wmo:42887:1,2011-02-02T18:00:00Z,28.1910,-88.4960,48.2,9.2,16.0,99.0,'11111222,11111222,11144222' 
ADCP,ioos:station:wmo:42887:1,2011-02-02T18:20:00Z,28.1910,-88.4960,48.2,9.7,19.0,99.0,'11111222,11111222,11144222' 
ADCP,ioos:station:wmo:42887:1,2011-02-02T18:40:00Z,28.1910,-88.4960,48.2,8.0,13.0,99.0,'11111222,11111222,11144222' 
ADCP,ioos:station:wmo:42887:1,2011-02-02T19:00:00Z,28.1910,-88.4960,48.2,8.0,13.0,99.0,'11111222,11111222,11144222' 
ADCP,ioos:station:wmo:42887:1,2011-02-02T19:20:00Z,28.1910,-88.4960,48.2,8.0,13.0,99.0,'11111222,11111222,11144222' 
ADCP,ioos:station:wmo:42887:1,2011-02-02T19:40:00Z,28.1910,-88.4960,48.2,8.0,13.0,99.0,'11111222,11111222,11144222' 
ADCP,ioos:station:wmo:42887:1,2011-02-02T20:00:00Z,28.1910,-88.4960,48.2,7.9,24.0,99.0,'11111222,11111222,11144222' 
ADCP,ioos:station:wmo:42887:1,2011-02-02T20:20:00Z,28.1910,-88.4960,48.2,8.0,26.0,99.0,'11111222,11111222,11144222' 
ADCP,ioos:station:wmo:42887:1,2011-02-02T20:40:00Z,28.1910,-88.4960,48.2,7.5,22.0,99.0,'11111222,11111222,11144222' 
ADCP,ioos:station:wmo:42887:1,2011-02-02T21:00:00Z,28.1910,-88.4960,48.2,9.5,22.0,99.0,'11111222,11111222,11144222' 
ADCP,ioos:station:wmo:42887:1,2011-02-02T21:20:00Z,28.1910,-88.4960,48.2,9.6,23.0,99.0,'11111222,11111222,11144222' 
ADCP,ioos:station:wmo:42887:1,2011-02-02T21:40:00Z,28.1910,-88.4960,48.2,11.7,17.0,99.0,'11111222,11111222,11144222' 
ADCP,ioos:station:wmo:42887:1,2011-02-02T22:00:00Z,28.1910,-88.4960,48.2,10.2,16.0,99.0,'11111222,11111222,11144222' 
ADCP,ioos:station:wmo:42887:1,2011-02-02T22:40:00Z,28.1910,-88.4960,48.2,11.2,23.0,99.0,'11111222,11111222,11144222' 
ADCP,ioos:station:wmo:42887:1,2011-02-02T23:00:00Z,28.1910,-88.4960,48.2,10.6,25.0,99.0,'11111222,11111222,11144222' 
ADCP,ioos:station:wmo:42887:1,2011-02-02T23:20:00Z,28.1910,-88.4960,48.2,12.1,23.0,99.0,'11111222,11111222,11144222' 
ADCP,ioos:station:wmo:42887:1,2011-02-02T23:40:00Z,28.1910,-88.4960,48.2,10.2,26.0,99.0,'11111222,11111222,11144222' 
ADCP,ioos:station:wmo:42887:1,2011-02-03T00:00:00Z,28.1910,-88.4960,48.2,11.2,26.0,99.0,'11111222,11111222,11144222' 
ADCP,ioos:station:wmo:42887:1,2011-02-03T00:20:00Z,28.1910,-88.4960,48.2,11.3,25.0,99.0,'11111222,11111222,11144222' 
ADCP,ioos:station:wmo:42887:1,2011-02-03T00:40:00Z,28.1910,-88.4960,48.2,11.2,23.0,99.0,'11111222,11111222,11144222' 
ADCP,ioos:station:wmo:42887:1,2011-02-03T01:00:00Z,28.1910,-88.4960,48.2,11.7,40.0,99.0,'11111222,11111222,11144222' 
ADCP,ioos:station:wmo:42887:1,2011-02-03T01:20:00Z,28.1910,-88.4960,48.2,9.8,25.0,99.0,'11111222,11111222,11144222' 
ADCP,ioos:station:wmo:42887:1,2011-02-03T01:40:00Z,28.1910,-88.4960,48.2,11.0,26.0,99.0,'11111222,11111222,11144222' 
ADCP,ioos:station:wmo:42887:1,2011-02-03T02:00:00Z,28.1910,-88.4960,48.2,8.4,35.0,99.0,'11111222,11111222,11144222' 
ADCP,ioos:station:wmo:42887:1,2011-02-03T02:20:00Z,28.1910,-88.4960,48.2,9.4,49.0,99.0,'11111222,11111222,11144222' 
ADCP,ioos:station:wmo:42887:1,2011-02-03T02:40:00Z,28.1910,-88.4960,48.2,10.3,44.0,99.0,'11111222,11111222,11144222' 
ADCP,ioos:station:wmo:42887:1,2011-02-03T03:00:00Z,28.1910,-88.4960,48.2,10.5,29.0,99.0,'11111222,11111222,11144222' 
ADCP,ioos:station:wmo:42887:1,2011-02-03T03:20:00Z,28.1910,-88.4960,48.2,9.5,39.0,99.0,'11111222,11111222,11144222' 
ADCP,ioos:station:wmo:42887:1,2011-02-03T03:40:00Z,28.1910,-88.4960,48.2,9.7,43.0,99.0,'11111222,11111222,11144222' 
ADCP,ioos:station:wmo:42887:1,2011-02-03T04:00:00Z,28.1910,-88.4960,48.2,9.4,39.0,99.0,'11111222,11111222,11144222' 
ADCP,ioos:station:wmo:42887:1,2011-02-03T04:20:00Z,28.1910,-88.4960,48.2,9.8,38.0,99.0,'11111222,11111222,11144222' 
ADCP,ioos:station:wmo:42887:1,2011-02-03T04:40:00Z,28.1910,-88.4960,48.2,9.7,37.0,99.0,'11111222,11111222,11144222' 
ADCP,ioos:station:wmo:42887:1,2011-02-03T05:00:00Z,28.1910,-88.4960,48.2,9.3,52.0,99.0,'11111222,11111222,11144222' 
ADCP,ioos:station:wmo:42887:1,2011-02-03T05:20:00Z,28.1910,-88.4960,48.2,10.3,53.0,99.0,'11111222,11111222,11144222' 
ADCP,ioos:station:wmo:42887:1,2011-02-03T05:40:00Z,28.1910,-88.4960,48.2,10.1,59.0,99.0,'11111222,11111222,11144222' 
ADCP,ioos:station:wmo:42887:1,2011-02-03T06:00:00Z,28.1910,-88.4960,48.2,10.1,71.0,99.0,'11111222,11111222,11144222' 
ADCP,ioos:station:wmo:42887:1,2011-02-03T06:20:00Z,28.1910,-88.4960,48.2,8.2,55.0,99.0,'11111222,11111222,11144222' 
ADCP,ioos:station:wmo:42887:1,2011-02-03T06:40:00Z,28.1910,-88.4960,48.2,8.8,40.0,99.0,'11111222,11111222,11144222' 
ADCP,ioos:station:wmo:42887:1,2011-02-03T07:00:00Z,28.1910,-88.4960,48.2,7.6,55.0,99.0,'11111222,11111222,11144222' 
ADCP,ioos:station:wmo:42887:1,2011-02-03T07:20:00Z,28.1910,-88.4960,48.2,8.5,55.0,99.0,'11111222,11111222,11144222' 
ADCP,ioos:station:wmo:42887:1,2011-02-03T07:40:00Z,28.1910,-88.4960,48.2,8.0,28.0,99.0,'11111222,11111222,11144222' 
ADCP,ioos:station:wmo:42887:1,2011-02-03T08:00:00Z,28.1910,-88.4960,48.2,8.3,45.0,99.0,'11111222,11111222,11144222' 
ADCP,ioos:station:wmo:42887:1,2011-02-03T08:20:00Z,28.1910,-88.4960,48.2,8.3,52.0,99.0,'11111222,11111222,11144222' 
ADCP,ioos:station:wmo:42887:1,2011-02-03T08:40:00Z,28.1910,-88.4960,48.2,8.0,31.0,99.0,'11111222,11111222,11144222' 
ADCP,ioos:station:wmo:42887:1,2011-02-03T09:00:00Z,28.1910,-88.4960,48.2,10.3,30.0,99.0,'11111222,11111222,11144222' 
ADCP,ioos:station:wmo:42887:1,2011-02-03T09:20:00Z,28.1910,-88.4960,48.2,8.7,49.0,99.0,'11111222,11111222,11144222' 
ADCP,ioos:station:wmo:42887:1,2011-02-03T09:40:00Z,28.1910,-88.4960,48.2,9.9,42.0,99.0,'11111222,11111222,11144222' 
ADCP,ioos:station:wmo:42887:1,2011-02-03T10:00:00Z,28.1910,-88.4960,48.2,8.5,45.0,99.0,'11111222,11111222,11144222' 
ADCP,ioos:station:wmo:42887:1,2011-02-03T10:20:00Z,28.1910,-88.4960,48.2,10.3,50.0,99.0,'11111222,11111222,11144222' 
ADCP,ioos:station:wmo:42887:1,2011-02-03T10:40:00Z,28.1910,-88.4960,48.2,9.6,45.0,99.0,'11111222,11111222,11144222' 
ADCP,ioos:station:wmo:42887:1,2011-02-03T11:20:00Z,28.1910,-88.4960,48.2,7.0,69.0,99.0,'11111222,11111222,11144222' 
ADCP,ioos:station:wmo:42887:1,2011-02-03T11:40:00Z,28.1910,-88.4960,48.2,9.2,51.0,99.0,'11111222,11111222,11144222' 
ADCP,ioos:station:wmo:42887:1,2011-02-03T12:00:00Z,28.1910,-88.4960,48.2,9.7,59.0,99.0,'11111222,11111222,11144222' 
ADCP,ioos:station:wmo:42887:1,2011-02-03T12:20:00Z,28.1910,-88.4960,48.2,9.9,72.0,99.0,'11111222,11111222,11144222' 
ADCP,ioos:station:wmo:42887:1,2011-02-03T12:40:00Z,28.1910,-88.4960,48.2,8.7,74.0,99.0,'11111222,11111222,11144222' 
ADCP,ioos:station:wmo:42887:1,2011-02-03T13:00:00Z,28.1910,-88.4960,48.2,9.3,71.0,99.0,'11111222,11111222,11144222' 
ADCP,ioos:station:wmo:42887:1,2011-02-03T13:20:00Z,28.1910,-88.4960,48.2,9.8,51.0,99.0,'11111222,11111222,11144222' 
ADCP,ioos:station:wmo:42887:1,2011-02-03T13:40:00Z,28.1910,-88.4960,48.2,7.9,56.0,99.0,'11111222,11111222,11144222' 
ADCP,ioos:station:wmo:42887:1,2011-02-03T14:00:00Z,28.1910,-88.4960,48.2,7.3,40.0,99.0,'11111222,11111222,11144222' 
ADCP,ioos:station:wmo:42887:1,2011-02-03T14:20:00Z,28.1910,-88.4960,48.2,8.3,34.0,99.0,'11111222,11111222,11144222' 
ADCP,ioos:station:wmo:42887:1,2011-02-03T14:40:00Z,28.1910,-88.4960,48.2,7.8,36.0,99.0,'11111222,11111222,11144222' 
ADCP,ioos:station:wmo:42887:1,2011-02-03T15:00:00Z,28.1910,-88.4960,48.2,7.2,46.0,99.0,'11111222,11111222,11144222' 
ADCP,ioos:station:wmo:42887:1,2011-02-03T15:20:00Z,28.1910,-88.4960,48.2,7.9,53.0,99.0,'11111222,11111222,11144222' 
ADCP,ioos:station:wmo:42887:1,2011-02-03T15:40:00Z,28.1910,-88.4960,48.2,8.3,42.0,99.0,'11111222,11111222,11144222' 
ADCP,ioos:station:wmo:42887:1,2011-02-03T16:00:00Z,28.1910,-88.4960,48.2,8.9,60.0,99.0,'11111222,11111222,11144222' 
ADCP,ioos:station:wmo:42887:1,2011-02-03T16:20:00Z,28.1910,-88.4960,48.2,9.2,42.0,99.0,'11111222,11111222,11144222' 
ADCP,ioos:station:wmo:42887:1,2011-02-03T16:40:00Z,28.1910,-88.4960,48.2,9.2,55.0,99.0,'11111222,11111222,11144222' 
ADCP,ioos:station:wmo:42887:1,2011-02-03T17:00:00Z,28.1910,-88.4960,48.2,8.4,63.0,99.0,'11111222,11111222,11144222' 
ADCP,ioos:station:wmo:42887:1,2011-02-03T17:20:00Z,28.1910,-88.4960,48.2,7.8,60.0,99.0,'11111222,11111222,11144222' 
ADCP,ioos:station:wmo:42887:1,2011-02-03T17:40:00Z,28.1910,-88.4960,48.2,7.7,56.0,99.0,'11111222,11111222,11144222' 
ADCP,ioos:station:wmo:42887:1,2011-02-03T18:00:00Z,28.1910,-88.4960,48.2,9.3,57.0,99.0,'11111222,11111222,11144222' 
ADCP,ioos:station:wmo:42887:1,2011-02-03T18:20:00Z,28.1910,-88.4960,48.2,8.0,55.0,99.0,'11111222,11111222,11144222' 
ADCP,ioos:station:wmo:42887:1,2011-02-03T18:40:00Z,28.1910,-88.4960,48.2,8.2,58.0,99.0,'11111222,11111222,11144222' 
ADCP,ioos:station:wmo:42887:1,2011-02-03T19:00:00Z,28.1910,-88.4960,48.2,9.5,63.0,99.0,'11111222,11111222,11144222' 
ADCP,ioos:station:wmo:42887:1,2011-02-03T19:20:00Z,28.1910,-88.4960,48.2,9.4,41.0,99.0,'11111222,11111222,11144222' 
ADCP,ioos:station:wmo:42887:1,2011-02-03T19:40:00Z,28.1910,-88.4960,48.2,8.8,38.0,99.0,'11111222,11111222,11144222' 
ADCP,ioos:station:wmo:42887:1,2011-02-03T20:00:00Z,28.1910,-88.4960,48.2,8.3,27.0,99.0,'11111222,11111222,11144222' 
ADCP,ioos:station:wmo:42887:1,2011-02-03T20:20:00Z,28.1910,-88.4960,48.2,9.2,34.0,99.0,'11111222,11111222,11144222' 
ADCP,ioos:station:wmo:42887:1,2011-02-03T20:40:00Z,28.1910,-88.4960,48.2,8.7,33.0,99.0,'11111222,11111222,11144222' 